Regional Weather Roundup
Issued by NWS Bismarck, ND

Home | Current Version | Previous Version | Text Only | Print | Product List | Glossary On
Versions: 1 2 3 4 5 6 7 8 9 10 11 12 13 14 15 16 17 18 19 20 21 22 23 24 25 26 27 28 29 30 31 32 33 34 35 36 37 38 39 40 41 42 43 44 45 46 47 48 49 50
000
ASUS43 KBIS 231020
RWRBIS

NWR BROADCAST TEXT
NATIONAL WEATHER SERVICE BISMARCK ND
500 AM CDT SAT AUG 23 2014

NOTE: "FAIR" INDICATES FEW OR NO CLOUDS BELOW 12,000 FEET WITH NO
SIGNIFICANT WEATHER AND/OR OBSTRUCTIONS TO VISIBILITY.


CITY           SKY/WX    TMP DP  RH WIND       PRES   REMARKS
WILLISTON      CLOUDY    60  54  80 NE12      30.09F
MINOT          CLOUDY    56  53  90 NE12      30.11F
MINOT AFB      MOCLDY    56  56  99 NE12      30.11F
BISMARCK       CLOUDY    63  59  87 NE16      30.03F
DICKINSON      CLOUDY    61  60  97 E20G28    30.00F FOG
GARRISON         N/A     59  56  89 NE13      30.08S
HETTINGER ARPT LGT RAIN  63  61  93 E17G23    29.98F
JAMESTOWN      CLOUDY    61  58  90 NE12G20   30.04F
BEACH            N/A     59  59 100 E16       30.01S FOG
CARRINGTON     CLOUDY    59  59 100 NE13      30.08S
CROSBY         CLOUDY    55  55 100 E15G21    30.14F
HARVEY         CLOUDY    57  57 100 NE9G20    30.09S
HAZEN          CLOUDY    59  57  94 E13G21    30.05F
LINTON         CLOUDY    63  63 100 E13       30.02R
MANDAN         CLOUDY    61  59  94 NE14G22   30.04S
OAKES            N/A     63  63 100 NE12      30.03R FOG
RUGBY          CLOUDY    55  55 100 NE12G21   30.11F
STANLEY        CLOUDY    55  55 100 NE14G21   30.11F
TIOGA          CLOUDY    55  55 100 NE17G24   30.14R
WATFORD CITY   CLOUDY    59  55  88 E21G26    30.05S
$$

CITY           SKY/WX    TMP DP  RH WIND       PRES   REMARKS
GRAND FORKS    LGT RAIN  62  60  93 N13       30.05F FOG
GRAND FORKS AF DRIZZLE   59  59 100 NE15      30.06F
DEVILS LAKE    CLOUDY    57  52  82 NE15      30.07F
FARGO          CLOUDY    65  63  93 N9        30.00F FOG
CANDO          CLOUDY    55  55 100 NE10      30.12F FOG
CAVALIER       CLOUDY    57  55  94 N13       30.10F
GRAFTON        CLOUDY    57  57 100 N14       30.07F
GWINNER        CLOUDY    64  64 100 NE9       30.04R
LANGDON        CLOUDY    55  55 100 N12       30.12F
ROLLA          CLOUDY    54  54 100 NE14G24   30.14F
WALHALLA       FAIR      57  57 100 N10       30.12F
$$

CITY           SKY/WX    TMP DP  RH WIND       PRES   REMARKS
ABERDEEN       LGT RAIN  64  64 100 NE12      29.99R
MOBRIDGE       RAIN      64  63  96 E12G22    29.95R
BUFFALO          N/A     64  62  93 E14       29.89F
RAPID CITY     LGT RAIN  65  64  97 SE9       29.94S FOG
GLASGOW        LGT RAIN  58  56  93 NE21      30.03S
SIDNEY         CLOUDY    61  57  88 NE12      30.04F
WOLF POINT     HVY RAIN  59  55  87 NE21G30   30.04F FOG
GLENDIVE       CLOUDY    61  61 100 NE15G21   29.99F
MILES CITY     CLOUDY    63  61  93 NE9       29.92F
BAKER          HVY RAIN  63  61  93 S12G23    29.98S FOG
$$

CITY           SKY/WX    TMP DP  RH WIND       PRES   REMARKS
BILLINGS       CLOUDY    60  59  96 CALM      29.92F FOG
GREAT FALLS    RAIN      48  48 100 NW15      30.08F FOG
REGINA         CLOUDY    54  50  87 E10       30.22R
ESTEVAN        CLOUDY    55  52  88 E12       30.16F
$$



USA.gov is the U.S. government's official web portal to all federal, state and local government web resources and services.